Volver al catálogo

HAWK-6C

ActivoCienciaVLEO
NORAD 55326·PAYLOAD·🇺🇸 United States

Lanzado Jan 24, 2023 desde Wallops Flight Facility

Loading…

Próximos Pases (próximas 24 horas)

TLE

ActualizadoSource: Space-Track

Época: Sep 14, 2026, 03:34 UTC

1 55326U 23011C   26257.14924168  .00003883  00000-0  16683-3 0  9994
2 55326  40.4964 189.7379 0004365 282.1255  77.9066 15.23599909201423

Sigue HAWK-6C en tiempo real con AllMySat

Download on the App Store